This is the latest recevied weather packets stored in our database for station/object JA3YAI-13. If no packets are shown the sender has not sent any weather packets the latest 10 day(s).
| Time | Temp. | Humidity | Pressure | Rain* | Wind** | Luminosity | Snow |
|---|---|---|---|---|---|---|---|
| 1777889185 | 15° C | 75% | 1005.6 hPa | 0 mm | - | - | - |
| 1777888585 | 15° C | 73% | 1005.1 hPa | 0 mm | - | - | - |
| 1777887984 | 15° C | 72% | 1004.9 hPa | 0 mm | - | - | - |
| 1777887384 | 15° C | 71% | 1004.6 hPa | 0 mm | - | - | - |
| 1777886783 | 15.56° C | 70% | 1004.4 hPa | 0 mm | - | - | - |
| 1777886185 | 15.56° C | 69% | 1004.2 hPa | 0 mm | - | - | - |
| 1777885585 | 15.56° C | 68% | 1004 hPa | 0 mm | - | - | - |
| 1777884984 | 16.11° C | 69% | 1003.9 hPa | 0 mm | - | - | - |
| 1777884384 | 16.11° C | 70% | 1003.6 hPa | 0 mm | - | - | - |
| 1777883785 | 16.67° C | 71% | 1003.3 hPa | 0 mm | - | - | - |
| 1777883185 | 16.67° C | 70% | 1003 hPa | 0 mm | - | - | - |
| 1777882584 | 16.67° C | 67% | 1002.9 hPa | 0 mm | - | - | - |
| 1777881984 | 17.22° C | 68% | 1002.6 hPa | 0 mm | - | - | - |
| 1777881384 | 17.22° C | 66% | 1002.4 hPa | 0 mm | - | - | - |
| 1777880785 | 17.78° C | 62% | 1002.3 hPa | 0 mm | - | - | - |
| 1777880185 | 17.78° C | 62% | 1001.7 hPa | 0 mm | - | - | - |
| 1777879585 | 17.78° C | 64% | 1001.6 hPa | 0 mm | - | - | - |
| 1777878984 | 17.78° C | 63% | 1001.5 hPa | 0 mm | - | - | - |
| 1777878384 | 17.78° C | 64% | 1001.3 hPa | 0 mm | - | - | - |
| 1777877785 | 17.78° C | 66% | 1001.1 hPa | 0 mm | - | - | - |
| 1777877185 | 17.78° C | 65% | 1001 hPa | 0 mm | - | - | - |
| 1777876585 | 17.78° C | 65% | 1000.9 hPa | 0 mm | - | - | - |
| 1777875984 | 17.78° C | 66% | 1000.8 hPa | 0 mm | - | - | - |
| 1777875384 | 18.33° C | 65% | 1000.5 hPa | 0 mm | - | - | - |
| 1777874785 | 18.33° C | 64% | 1000.4 hPa | 0 mm | - | - | - |
* Rain latest hour (hover to see other rain measurements)
** Current wind speed in m/s (hover to see current wind gust speed)